Find Starlink 32593

NORAD ID: 61974 Int'l Des: 2024-210 Owner: SPXS Country: US Constellation: starlink operational
LEOCIRCULAR

リアルタイム位置

3D地球を読み込み中...

Starlink 32593について

説明を読み込み中...

次回通過

Passes for default location (London). Set your location on the main map for personalized predictions.

高度履歴

Loading altitude history...

軌道要素

1 61974U 24210R 26125.63114825 .00018371 00000-0 67496-3 0 9997
2 61974 42.9987 218.6636 0001305 281.8879 78.1826 15.27603849 83583
Epoch: May 5, 2026 • Age: 10 hours

現在のステータス

高度 486.8 km
速度 7.63 km/s
衛星直下点 42.48°N, 56.3°E
打ち上げ日 Nov 14, 2024
運用期間 1.4 years
タイプ internet

技術仕様

分類 Payload
質量 730.00 kg
乾燥質量 700.00 kg
総質量 730.00 kg
長さ 0.30 m
直径 4.10 m
スパン 29.00 m
形状 Box + pan
製造者 SPXS
バスタイプ Starlink V2M
フェーズステータス In Orbit
所有者/国 SPXS/US

Most Searched